Location: Hamilton Branch State Park
(33.7552°N, 82.2209°W)
Time: 14:32:04
(UTC-04:00)

Hubble Space Telescope - Pass Details

Date: 17 September 2019
Orbit: 536 x 540 km, 28.5° (Epoch: 21 October)

Event Time Altitude Azimuth Distance (km) Brightness Sun altitude
Exits shadow 05:51:17 33° 216° (SW) 912 1.5 -17.7°
Maximum altitude 05:52:21 39° 180° (S) 801 1.5 -17.4°
Drops below altitude 10° 05:56:12 10° 110° (ESE) 1,781 4.2 -16.7°
Sets 05:58:33 0° 103° (ESE) 2,672 5.5 -16.2°
